Martinsburg, WV

3:44 AM EST on December 16, 2019 (GMT -0500)
Eastern W Va Regional-Shepherd

Weather History for KMRB - October, 2019

Change the Weather History Date:

Friday, October 11, 2019

  Actual Average Record
Temperature  
Mean Temperature 58 °F 55 °F  
Max Temperature 73 °F 67 °F 91 °F (1939)
Min Temperature 42 °F 44 °F 28 °F (1956)
Degree Days  
Heating Degree Days 8 10  
Month to date heating degree days 41 92  
Since 1 July heating degree days 53 183  
Cooling Degree Days 0 0  
Month to date cooling degree days 37 8  
Year to date cooling degree days 1280 893  
Growing Degree Days 8 (Base 50)    
Moisture  
Dew Point 44 °F    
Average Humidity 83    
Maximum Humidity 100    
Minimum Humidity 29    
Precipitation  
Precipitation 0.00 in 0.11 in 1.64 in (1990)
Month to date precipitation 1.20 1.12  
Year to date precipitation 36.10 30.93  
Sea Level Pressure  
Sea Level Pressure 30.15 in    
Wind  
Wind Speed 1 mph ()    
Max Wind Speed 10 mph    
Max Gust Speed 14 mph    
Visibility 5.6 miles    
Events Fog    
T = Trace of Precipitation, MM = Missing Value Source: Averaged Metar Reports

Daily Weather History Graph

Daily Weather History Graph

Search for Another Location

Airport or City:

Astronomy

Oct. 11, 2019 Rise Set
Actual Time 7:17 AM EDT 6:39 PM EDT
Civil Twilight 6:50 AM EDT 7:06 PM EDT
Nautical Twilight 6:19 AM EDT 7:37 PM EDT
Astronomical Twilight 5:48 AM EDT 8:08 PM EDT
Moon 6:06 PM EDT (10/11) 4:57 AM EDT (10/11)
Length of Visible Light 12h 15m
Length of Day
11h 21m
Waxing Gibbous, 96% of the Moon is Illuminated
Oct 11
Waxing Gibbous
Oct 13
Full
Oct 21
Last Quarter
Oct 27
New
Nov 4
First Quarter

Hourly Weather History & Observations

Time (EDT) Temp. Windchill Dew Point Humidity Pressure Visibility Wind Dir Wind Speed Gust Speed Precip Events Conditions
12:53 AM 51.1 °F - 50.0 °F 96% 30.18 in 10.0 mi Calm Calm - N/A   Clear
1:53 AM 50.0 °F - 48.9 °F 96% 30.18 in 8.0 mi Calm Calm - N/A   Clear
2:53 AM 48.9 °F - 48.0 °F 97% 30.18 in 3.0 mi Calm Calm - N/A   Clear
3:16 AM 48.0 °F - 46.9 °F 96% 30.18 in 1.5 mi Calm Calm - N/A   Clear
3:25 AM 46.9 °F - 46.0 °F 97% 30.18 in 3.0 mi Calm Calm - N/A   Clear
3:45 AM 46.9 °F - 45.0 °F 93% 30.18 in 1.5 mi Calm Calm - N/A   Clear
3:53 AM 46.9 °F - 45.0 °F 93% 30.18 in 1.2 mi Calm Calm - N/A   Clear
4:06 AM 46.9 °F - 45.0 °F 93% 30.18 in 3.0 mi Calm Calm - N/A   Clear
4:36 AM 45.0 °F - 44.1 °F 97% 30.18 in 2.5 mi Calm Calm - N/A   Clear
4:45 AM 46.0 °F - 45.0 °F 96% 30.18 in 7.0 mi Calm Calm - N/A   Clear
4:53 AM 46.0 °F - 44.1 °F 93% 30.17 in 6.0 mi Calm Calm - N/A   Clear
5:13 AM 45.0 °F - 44.1 °F 97% 30.17 in 1.5 mi Calm Calm - N/A   Clear
5:22 AM 45.0 °F - 44.1 °F 97% 30.18 in 0.5 mi Calm Calm - N/A Fog Fog
5:53 AM 44.1 °F - 43.0 °F 96% 30.18 in 1.5 mi Calm Calm - N/A   Scattered Clouds
5:55 AM 44.1 °F - 43.0 °F 96% 30.18 in 2.5 mi Calm Calm - N/A   Mostly Cloudy
6:05 AM 44.1 °F - 43.0 °F 96% 30.18 in 1.0 mi Calm Calm - N/A   Mist
6:11 AM 43.0 °F 41.3 °F 43.0 °F 100% 30.18 in 2.0 mi SSW 3.5 mph - N/A   Scattered Clouds
6:19 AM 43.0 °F - 42.1 °F 97% 30.18 in 5.0 mi Calm Calm - N/A   Scattered Clouds
6:33 AM 43.0 °F - 42.1 °F 97% 30.18 in 1.8 mi Calm Calm - N/A   Partly Cloudy
6:39 AM 43.0 °F - 42.1 °F 97% 30.18 in 3.0 mi Calm Calm - N/A   Mostly Cloudy
6:53 AM 44.1 °F - 43.0 °F 96% 30.19 in 0.8 mi Calm Calm - N/A   Mist
7:02 AM 43.0 °F - 42.1 °F 97% 30.18 in 2.0 mi Calm Calm - N/A   Mostly Cloudy
7:05 AM 42.1 °F - 41.0 °F 96% 30.18 in 6.0 mi Calm Calm - N/A   Scattered Clouds
7:14 AM 43.0 °F - 42.1 °F 97% 30.18 in 1.8 mi Calm Calm - N/A   Partly Cloudy
7:21 AM 43.0 °F - 42.1 °F 97% 30.18 in 10.0 mi Calm Calm - N/A   Partly Cloudy
7:53 AM 43.0 °F 41.3 °F 43.0 °F 100% 30.19 in 10.0 mi East 3.5 mph - N/A   Scattered Clouds
8:00 AM 44.1 °F 42.5 °F 43.0 °F 96% 30.19 in 0.2 mi East 3.5 mph - N/A Fog Fog
8:53 AM 48.0 °F - 48.0 °F 100% 30.20 in 0.5 mi Calm Calm - N/A Fog Fog
9:01 AM 48.9 °F - 48.9 °F 100% 30.20 in 2.0 mi Calm Calm - N/A   Mostly Cloudy
9:07 AM 50.0 °F - 50.0 °F 100% 30.20 in 3.0 mi Calm Calm - N/A   Scattered Clouds
9:53 AM 53.1 °F - 51.1 °F 93% 30.21 in 8.0 mi Calm Calm - N/A   Clear
10:53 AM 63.0 °F - 42.1 °F 46% 30.19 in 10.0 mi North 8.1 mph - N/A   Clear
11:53 AM 66.0 °F - 39.0 °F 37% 30.17 in 10.0 mi Variable 5.8 mph - N/A   Clear
12:53 PM 69.1 °F - 39.0 °F 33% 30.14 in 10.0 mi NE 4.6 mph - N/A   Clear
1:53 PM 70.0 °F - 39.9 °F 33% 30.11 in 10.0 mi North 4.6 mph - N/A   Clear
2:53 PM 72.0 °F - 41.0 °F 33% 30.08 in 10.0 mi North 4.6 mph - N/A   Clear
3:53 PM 73.0 °F - 39.0 °F 29% 30.06 in 10.0 mi Variable 3.5 mph - N/A   Clear
4:53 PM 72.0 °F - 41.0 °F 33% 30.06 in 10.0 mi WNW 6.9 mph - N/A   Clear
5:53 PM 70.0 °F - 39.9 °F 33% 30.06 in 10.0 mi NW 5.8 mph - N/A   Clear
6:53 PM 61.0 °F - 45.0 °F 56% 30.05 in 10.0 mi Calm Calm - N/A   Clear
7:53 PM 55.9 °F - 44.1 °F 64% 30.05 in 10.0 mi Calm Calm - N/A   Clear
8:53 PM 53.1 °F - 45.0 °F 74% 30.06 in 10.0 mi Calm Calm - N/A   Clear
9:53 PM 50.0 °F - 45.0 °F 83% 30.07 in 10.0 mi Calm Calm - N/A   Clear
10:53 PM 50.0 °F - 45.0 °F 83% 30.06 in 10.0 mi Calm Calm - N/A   Clear
11:53 PM 46.9 °F - 44.1 °F 90% 30.05 in 10.0 mi Calm Calm - N/A   Clear